Wetterdaten: Montag, 06.07.2026
Datum Zeit Außen Temp. Server Temp. +20m Feuchte Feuchte +20m Luftdruck Regen Wind Richtung Richtung Sonnenschein Helligkeit Solar Taupunkt
06.07.2026 00:00 16,4 °C 24,3 °C 12,8 °C 81 % 95 % 1018,5 hPa 0,00 l/m² 51,3 km/h (7 Bft) S-SW 195 ° 0 min 0 lux 0 W/m² 13,1 °C
06.07.2026 00:15 16,4 °C 24,3 °C 12,7 °C 81 % 95 % 1018,5 hPa 0,00 l/m² 51,3 km/h (7 Bft) S-SW 195 ° 0 min 0 lux 0 W/m² 13,1 °C
06.07.2026 00:30 15,3 °C 24,3 °C 12,7 °C 82 % 95 % 1018,6 hPa 0,00 l/m² 51,3 km/h (7 Bft) S-SW 195 ° 0 min 0 lux 0 W/m² 12,2 °C
06.07.2026 00:45 15,4 °C 24,3 °C 12,6 °C 82 % 95 % 1018,6 hPa 0,00 l/m² 51,3 km/h (7 Bft) S-SW 195 ° 0 min 0 lux 0 W/m² 12,3 °C
06.07.2026 01:00 15,4 °C 24,3 °C 12,5 °C 83 % 95 % 1018,6 hPa 0,00 l/m² 51,3 km/h (7 Bft) S-SW 195 ° 0 min 0 lux 0 W/m² 12,5 °C
06.07.2026 01:15 15,4 °C 24,3 °C 12,4 °C 83 % 95 % 1018,6 hPa 0,00 l/m² 51,3 km/h (7 Bft) S-SW 195 ° 0 min 0 lux 0 W/m² 12,5 °C
06.07.2026 01:30 15,4 °C 24,3 °C 12,4 °C 83 % 95 % 1018,6 hPa 0,00 l/m² 51,3 km/h (7 Bft) S-SW 195 ° 0 min 0 lux 0 W/m² 12,5 °C
06.07.2026 01:45 15,5 °C 24,3 °C 12,4 °C 83 % 95 % 1018,6 hPa 0,00 l/m² 51,3 km/h (7 Bft) S-SW 195 ° 0 min 0 lux 0 W/m² 12,6 °C
06.07.2026 02:00 15,4 °C 24,3 °C 12,4 °C 83 % 95 % 1018,6 hPa 0,00 l/m² 51,3 km/h (7 Bft) S-SW 195 ° 0 min 0 lux 0 W/m² 12,5 °C
06.07.2026 02:15 15,4 °C 24,3 °C 12,4 °C 83 % 95 % 1018,6 hPa 0,00 l/m² 51,3 km/h (7 Bft) S-SW 195 ° 0 min 0 lux 0 W/m² 12,5 °C
06.07.2026 02:30 15,4 °C 24,3 °C 12,2 °C 83 % 95 % 1018,6 hPa 0,00 l/m² 51,3 km/h (7 Bft) S-SW 195 ° 0 min 0 lux 0 W/m² 12,5 °C
06.07.2026 02:45 15,4 °C 24,3 °C 12,0 °C 83 % 95 % 1017,6 hPa 0,00 l/m² 51,3 km/h (7 Bft) S-SW 195 ° 0 min 0 lux 0 W/m² 12,5 °C
06.07.2026 03:00 15,4 °C 24,3 °C 11,9 °C 83 % 95 % 1017,6 hPa 0,00 l/m² 51,3 km/h (7 Bft) S-SW 195 ° 0 min 0 lux 0 W/m² 12,5 °C
06.07.2026 03:15 15,0 °C 24,3 °C 11,8 °C 82 % 95 % 1017,7 hPa 0,00 l/m² 51,3 km/h (7 Bft) S-SW 195 ° 0 min 0 lux 0 W/m² 12,0 °C
06.07.2026 03:30 14,8 °C 24,3 °C 11,6 °C 82 % 95 % 1017,7 hPa 0,00 l/m² 51,3 km/h (7 Bft) S-SW 195 ° 0 min 0 lux 0 W/m² 11,8 °C
06.07.2026 03:45 14,6 °C 24,3 °C 11,5 °C 82 % 95 % 1017,7 hPa 0,00 l/m² 51,3 km/h (7 Bft) S-SW 195 ° 0 min 0 lux 0 W/m² 11,6 °C
06.07.2026 04:00 14,5 °C 24,3 °C 11,3 °C 82 % 95 % 1017,7 hPa 0,00 l/m² 51,3 km/h (7 Bft) S-SW 195 ° 0 min 0 lux 0 W/m² 11,5 °C
06.07.2026 04:15 14,6 °C 24,3 °C 11,4 °C 82 % 95 % 1017,7 hPa 0,00 l/m² 51,3 km/h (7 Bft) S-SW 195 ° 0 min 0 lux 0 W/m² 11,6 °C
06.07.2026 04:30 14,6 °C 24,3 °C 11,3 °C 82 % 95 % 1017,7 hPa 0,00 l/m² 51,3 km/h (7 Bft) S-SW 195 ° 0 min 0 lux 0 W/m² 11,6 °C
06.07.2026 04:45 14,6 °C 24,3 °C 11,2 °C 82 % 95 % 1017,7 hPa 0,00 l/m² 51,3 km/h (7 Bft) S-SW 195 ° 0 min 0 lux 0 W/m² 11,6 °C
06.07.2026 05:00 14,5 °C 24,3 °C 11,1 °C 82 % 95 % 1017,7 hPa 0,00 l/m² 51,3 km/h (7 Bft) S-SW 195 ° 0 min 80 lux 0 W/m² 11,5 °C
06.07.2026 05:15 14,5 °C 24,3 °C 11,2 °C 82 % 95 % 1017,7 hPa 0,00 l/m² 51,3 km/h (7 Bft) S-SW 195 ° 0 min 235 lux 0 W/m² 11,5 °C
06.07.2026 05:30 14,5 °C 24,3 °C 11,1 °C 82 % 95 % 1017,7 hPa 0,00 l/m² 51,3 km/h (7 Bft) S-SW 195 ° 0 min 653 lux 4 W/m² 11,5 °C
06.07.2026 05:45 14,5 °C 24,3 °C 11,2 °C 82 % 95 % 1017,7 hPa 0,00 l/m² 51,3 km/h (7 Bft) S-SW 195 ° 0 min 1,30 klux 8 W/m² 11,5 °C
06.07.2026 06:00 14,5 °C 24,3 °C 11,3 °C 83 % 95 % 1017,7 hPa 0,00 l/m² 51,3 km/h (7 Bft) S-SW 195 ° 0 min 1,79 klux 12 W/m² 11,6 °C
06.07.2026 06:15 14,7 °C 24,3 °C 11,3 °C 83 % 95 % 1017,7 hPa 0,00 l/m² 51,3 km/h (7 Bft) S-SW 195 ° 0 min 2,25 klux 15 W/m² 11,8 °C
06.07.2026 06:30 14,7 °C 24,3 °C 11,5 °C 83 % 95 % 1017,7 hPa 0,00 l/m² 51,3 km/h (7 Bft) S-SW 195 ° 0 min 3,05 klux 20 W/m² 11,8 °C
06.07.2026 06:45 14,9 °C 24,3 °C 11,7 °C 83 % 95 % 1017,7 hPa 0,00 l/m² 51,3 km/h (7 Bft) S-SW 195 ° 0 min 2,91 klux 19 W/m² 12,0 °C
06.07.2026 07:00 15,1 °C 24,3 °C 11,8 °C 84 % 95 % 1017,6 hPa 0,00 l/m² 51,3 km/h (7 Bft) S-SW 195 ° 0 min 2,75 klux 18 W/m² 12,4 °C
06.07.2026 07:15 15,1 °C 24,3 °C 11,8 °C 84 % 95 % 1017,6 hPa 0,00 l/m² 51,3 km/h (7 Bft) S-SW 195 ° 0 min 2,92 klux 19 W/m² 12,4 °C
06.07.2026 07:30 15,4 °C 24,3 °C 12,3 °C 83 % 95 % 1017,6 hPa 0,00 l/m² 51,3 km/h (7 Bft) S-SW 195 ° 0 min 5,08 klux 33 W/m² 12,5 °C
06.07.2026 07:30 15,4 °C 24,3 °C 12,3 °C 83 % 95 % 1017,6 hPa 0,00 l/m² 51,3 km/h (7 Bft) S-SW 195 ° 0 min 5,08 klux 33 W/m² 12,5 °C
06.07.2026 07:45 15,5 °C 24,3 °C 12,5 °C 84 % 95 % 1017,6 hPa 0,00 l/m² 51,3 km/h (7 Bft) S-SW 195 ° 0 min 5,37 klux 35 W/m² 12,8 °C
06.07.2026 08:00 15,5 °C 24,3 °C 12,8 °C 84 % 95 % 1017,6 hPa 0,00 l/m² 51,3 km/h (7 Bft) S-SW 195 ° 0 min 5,84 klux 38 W/m² 12,8 °C
06.07.2026 08:15 15,5 °C 24,3 °C 12,9 °C 84 % 94 % 1017,6 hPa 0,00 l/m² 51,3 km/h (7 Bft) S-SW 195 ° 0 min 3,55 klux 23 W/m² 12,8 °C
06.07.2026 08:30 15,5 °C 24,3 °C 13,1 °C 84 % 93 % 1017,6 hPa 0,00 l/m² 51,3 km/h (7 Bft) S-SW 195 ° 0 min 6,15 klux 40 W/m² 12,8 °C
06.07.2026 08:45 15,5 °C 24,3 °C 13,0 °C 84 % 92 % 1017,6 hPa 0,00 l/m² 51,3 km/h (7 Bft) S-SW 195 ° 0 min 6,10 klux 40 W/m² 12,8 °C
06.07.2026 09:00 15,5 °C 24,3 °C 13,0 °C 84 % 92 % 1017,6 hPa 0,00 l/m² 51,3 km/h (7 Bft) S-SW 195 ° 0 min 2,79 klux 18 W/m² 12,8 °C
06.07.2026 09:15 15,5 °C 24,3 °C 13,1 °C 84 % 93 % 1016,6 hPa 0,00 l/m² 51,3 km/h (7 Bft) S-SW 195 ° 0 min 3,36 klux 22 W/m² 12,8 °C
06.07.2026 09:30 15,3 °C 24,3 °C 13,2 °C 84 % 92 % 1016,6 hPa 0,11 l/m² 51,3 km/h (7 Bft) S-SW 195 ° 0 min 4,23 klux 28 W/m² 12,6 °C
06.07.2026 09:45 15,5 °C 24,3 °C 13,4 °C 83 % 92 % 1016,6 hPa 0,00 l/m² 51,3 km/h (7 Bft) S-SW 195 ° 0 min 6,48 klux 42 W/m² 12,6 °C
06.07.2026 10:00 16,0 °C 24,3 °C 14,0 °C 83 % 89 % 1016,5 hPa 0,11 l/m² 51,3 km/h (7 Bft) S-SW 195 ° 0 min 15,3 klux 100 W/m² 13,1 °C
06.07.2026 10:15 16,1 °C 24,3 °C 14,1 °C 83 % 89 % 1016,5 hPa 0,00 l/m² 51,3 km/h (7 Bft) S-SW 195 ° 0 min 9,6 klux 62 W/m² 13,2 °C
06.07.2026 10:30 16,4 °C 24,3 °C 14,5 °C 83 % 84 % 1016,5 hPa 0,00 l/m² 51,3 km/h (7 Bft) S-SW 195 ° 0 min 13,6 klux 89 W/m² 13,5 °C
06.07.2026 10:45 16,5 °C 24,3 °C 15,0 °C 83 % 88 % 1016,5 hPa 0,00 l/m² 51,3 km/h (7 Bft) S-SW 195 ° 0 min 11,7 klux 76 W/m² 13,6 °C
06.07.2026 11:00 16,9 °C 24,3 °C 15,3 °C 83 % 81 % 1016,4 hPa 0,00 l/m² 51,3 km/h (7 Bft) S-SW 195 ° 0 min 9,6 klux 63 W/m² 14,0 °C
06.07.2026 11:15 17,0 °C 24,3 °C 15,4 °C 83 % 83 % 1016,4 hPa 0,00 l/m² 51,3 km/h (7 Bft) S-SW 195 ° 0 min 9,6 klux 62 W/m² 14,1 °C
06.07.2026 11:30 17,7 °C 24,3 °C 16,5 °C 83 % 79 % 1016,3 hPa 0,11 l/m² 51,3 km/h (7 Bft) S-SW 195 ° 0 min 22,4 klux 146 W/m² 14,8 °C
06.07.2026 11:45 18,3 °C 24,3 °C 17,5 °C 83 % 58 % 1015,3 hPa 0,00 l/m² 51,3 km/h (7 Bft) S-SW 195 ° 0 min 23,2 klux 151 W/m² 15,4 °C
06.07.2026 12:00 18,9 °C 24,3 °C 18,5 °C 82 % 52 % 1015,2 hPa 0,00 l/m² 51,3 km/h (7 Bft) S-SW 195 ° 0 min 26,1 klux 170 W/m² 15,8 °C
06.07.2026 12:15 19,3 °C 24,3 °C 19,0 °C 79 % 49 % 1015,2 hPa 0,00 l/m² 51,3 km/h (7 Bft) S-SW 195 ° 0 min 22,9 klux 149 W/m² 15,6 °C
06.07.2026 12:30 19,5 °C 24,3 °C 20,2 °C 79 % 48 % 1015,1 hPa 0,00 l/m² 51,3 km/h (7 Bft) S-SW 195 ° 0 min 36,0 klux 235 W/m² 15,8 °C
06.07.2026 12:45 20,3 °C 24,3 °C 21,1 °C 77 % 46 % 1015,1 hPa 0,00 l/m² 51,3 km/h (7 Bft) S-SW 195 ° 0 min 39,2 klux 255 W/m² 16,1 °C
06.07.2026 13:00 20,3 °C 24,3 °C 20,8 °C 77 % 45 % 1015,1 hPa 0,00 l/m² 51,3 km/h (7 Bft) S-SW 195 ° 0 min 27,5 klux 179 W/m² 16,1 °C
06.07.2026 13:15 20,3 °C 24,3 °C 21,1 °C 76 % 45 % 1015,1 hPa 0,00 l/m² 51,3 km/h (7 Bft) S-SW 195 ° 0 min 26,6 klux 173 W/m² 15,9 °C
06.07.2026 13:30 20,1 °C 24,3 °C 21,3 °C 77 % 46 % 1015,1 hPa 0,00 l/m² 51,3 km/h (7 Bft) S-SW 195 ° 0 min 28,5 klux 186 W/m² 15,9 °C
06.07.2026 13:45 20,1 °C 24,3 °C 20,7 °C 77 % 48 % 1015,1 hPa 0,00 l/m² 51,3 km/h (7 Bft) S-SW 195 ° 0 min 17,7 klux 115 W/m² 15,9 °C
06.07.2026 14:00 20,1 °C 24,3 °C 20,7 °C 77 % 49 % 1015,1 hPa 0,00 l/m² 51,3 km/h (7 Bft) S-SW 195 ° 0 min 13,0 klux 85 W/m² 15,9 °C
06.07.2026 14:15 19,8 °C 24,3 °C 20,5 °C 78 % 50 % 1014,1 hPa 0,00 l/m² 51,3 km/h (7 Bft) S-SW 195 ° 0 min 9,1 klux 59 W/m² 15,8 °C
06.07.2026 14:30 19,7 °C 24,3 °C 20,4 °C 79 % 51 % 1014,1 hPa 0,00 l/m² 51,3 km/h (7 Bft) S-SW 195 ° 0 min 7,43 klux 48 W/m² 16,0 °C
06.07.2026 14:45 19,9 °C 24,3 °C 20,7 °C 79 % 51 % 1014,1 hPa 0,00 l/m² 51,3 km/h (7 Bft) S-SW 195 ° 0 min 8,85 klux 58 W/m² 16,1 °C
06.07.2026 15:00 20,1 °C 24,3 °C 20,8 °C 78 % 50 % 1014,0 hPa 0,00 l/m² 51,3 km/h (7 Bft) S-SW 195 ° 0 min 8,47 klux 55 W/m² 16,1 °C
06.07.2026 15:15 20,1 °C 24,3 °C 20,4 °C 78 % 49 % 1014,0 hPa 0,00 l/m² 51,3 km/h (7 Bft) S-SW 195 ° 0 min 6,00 klux 39 W/m² 16,1 °C
06.07.2026 15:30 20,0 °C 24,3 °C 20,3 °C 76 % 47 % 1014,1 hPa 0,00 l/m² 51,3 km/h (7 Bft) S-SW 195 ° 0 min 4,39 klux 29 W/m² 15,6 °C
06.07.2026 15:45 19,9 °C 24,3 °C 20,3 °C 73 % 45 % 1015,1 hPa 0,00 l/m² 51,3 km/h (7 Bft) S-SW 195 ° 0 min 4,87 klux 32 W/m² 14,9 °C
06.07.2026 16:00 19,9 °C 24,3 °C 20,5 °C 72 % 44 % 1014,1 hPa 0,00 l/m² 51,3 km/h (7 Bft) S-SW 195 ° 0 min 6,06 klux 39 W/m² 14,7 °C
06.07.2026 16:15 20,1 °C 24,3 °C 20,7 °C 71 % 44 % 1014,0 hPa 0,00 l/m² 51,3 km/h (7 Bft) S-SW 195 ° 0 min 6,04 klux 39 W/m² 14,7 °C
06.07.2026 16:30 20,5 °C 24,3 °C 21,4 °C 70 % 42 % 1014,0 hPa 0,00 l/m² 51,3 km/h (7 Bft) S-SW 195 ° 0 min 15,7 klux 102 W/m² 14,8 °C
06.07.2026 16:45 20,9 °C 24,3 °C 21,7 °C 68 % 42 % 1014,0 hPa 0,00 l/m² 51,3 km/h (7 Bft) S-SW 195 ° 0 min 14,4 klux 94 W/m² 14,8 °C
06.07.2026 17:00 20,9 °C 24,3 °C 21,6 °C 68 % 42 % 1014,0 hPa 0,00 l/m² 51,3 km/h (7 Bft) S-SW 195 ° 0 min 11,6 klux 76 W/m² 14,8 °C
06.07.2026 17:15 21,3 °C 24,3 °C 22,5 °C 67 % 40 % 1013,9 hPa 0,00 l/m² 51,3 km/h (7 Bft) S-SW 195 ° 0 min 19,0 klux 124 W/m² 14,9 °C
06.07.2026 17:30 22,1 °C 24,3 °C 23,4 °C 65 % 39 % 1013,8 hPa 0,00 l/m² 51,3 km/h (7 Bft) S-SW 195 ° 0 min 20,0 klux 130 W/m² 15,2 °C
06.07.2026 17:45 22,3 °C 24,3 °C 23,6 °C 66 % 39 % 1013,8 hPa 0,00 l/m² 51,3 km/h (7 Bft) S-SW 195 ° 0 min 21,0 klux 137 W/m² 15,6 °C
06.07.2026 18:00 22,1 °C 24,3 °C 22,8 °C 66 % 40 % 1013,8 hPa 0,00 l/m² 51,3 km/h (7 Bft) S-SW 195 ° 0 min 10,8 klux 70 W/m² 15,4 °C
06.07.2026 18:15 21,5 °C 24,3 °C 22,3 °C 68 % 42 % 1013,9 hPa 0,00 l/m² 51,3 km/h (7 Bft) S-SW 195 ° 0 min 4,38 klux 29 W/m² 15,3 °C
06.07.2026 18:30 21,6 °C 24,3 °C 22,8 °C 69 % 43 % 1013,9 hPa 0,00 l/m² 51,3 km/h (7 Bft) S-SW 195 ° 0 min 12,5 klux 81 W/m² 15,7 °C
06.07.2026 18:45 22,2 °C 24,3 °C 23,3 °C 67 % 40 % 1012,8 hPa 0,00 l/m² 51,3 km/h (7 Bft) S-SW 195 ° 0 min 11,0 klux 72 W/m² 15,8 °C
06.07.2026 19:00 22,2 °C 24,3 °C 23,3 °C 66 % 40 % 1012,8 hPa 0,00 l/m² 51,3 km/h (7 Bft) S-SW 195 ° 0 min 9,3 klux 61 W/m² 15,5 °C
06.07.2026 19:15 22,3 °C 24,3 °C 23,9 °C 66 % 39 % 1012,8 hPa 0,00 l/m² 51,3 km/h (7 Bft) S-SW 195 ° 0 min 13,4 klux 87 W/m² 15,6 °C
06.07.2026 19:30 22,4 °C 24,3 °C 23,5 °C 66 % 40 % 1012,8 hPa 0,00 l/m² 51,3 km/h (7 Bft) S-SW 195 ° 0 min 10,7 klux 70 W/m² 15,7 °C
06.07.2026 19:45 22,0 °C 24,3 °C 23,1 °C 65 % 41 % 1012,8 hPa 0,00 l/m² 51,3 km/h (7 Bft) S-SW 195 ° 0 min 7,99 klux 52 W/m² 15,1 °C
06.07.2026 20:00 23,6 °C 24,3 °C 24,1 °C 60 % 38 % 1012,7 hPa 0,00 l/m² 51,3 km/h (7 Bft) S-SW 195 ° 0 min 14,2 klux 93 W/m² 15,4 °C
06.07.2026 20:15 22,3 °C 24,3 °C 22,9 °C 62 % 40 % 1012,8 hPa 0,00 l/m² 51,3 km/h (7 Bft) S-SW 195 ° 0 min 8,55 klux 56 W/m² 14,7 °C
06.07.2026 20:30 21,6 °C 24,3 °C 22,3 °C 63 % 40 % 1012,9 hPa 0,00 l/m² 51,3 km/h (7 Bft) S-SW 195 ° 0 min 2,30 klux 15 W/m² 14,2 °C
06.07.2026 20:45 21,4 °C 24,3 °C 22,1 °C 62 % 41 % 1012,9 hPa 0,00 l/m² 51,3 km/h (7 Bft) S-SW 195 ° 0 min 1,72 klux 11 W/m² 13,8 °C
06.07.2026 21:00 21,1 °C 24,3 °C 21,8 °C 63 % 41 % 1012,9 hPa 0,00 l/m² 51,3 km/h (7 Bft) S-SW 195 ° 0 min 1,46 klux 10 W/m² 13,8 °C
06.07.2026 21:15 20,8 °C 24,3 °C 21,4 °C 64 % 41 % 1012,9 hPa 0,00 l/m² 51,3 km/h (7 Bft) S-SW 195 ° 0 min 1,43 klux 9 W/m² 13,7 °C
06.07.2026 21:30 20,5 °C 24,3 °C 21,2 °C 65 % 42 % 1013,0 hPa 0,00 l/m² 51,3 km/h (7 Bft) S-SW 195 ° 0 min 722 lux 5 W/m² 13,7 °C
06.07.2026 21:45 20,0 °C 24,3 °C 20,7 °C 66 % 43 % 1013,0 hPa 0,00 l/m² 51,3 km/h (7 Bft) S-SW 195 ° 0 min 392 lux 0 W/m² 13,4 °C
06.07.2026 22:00 19,2 °C 24,3 °C 19,8 °C 70 % 48 % 1013,1 hPa 0,00 l/m² 51,3 km/h (7 Bft) S-SW 195 ° 0 min 144 lux 0 W/m² 13,6 °C
06.07.2026 22:15 18,3 °C 24,3 °C 18,8 °C 77 % 53 % 1013,2 hPa 0,00 l/m² 51,3 km/h (7 Bft) S-SW 195 ° 0 min 32 lux 0 W/m² 14,2 °C
06.07.2026 22:30 17,6 °C 24,3 °C 18,0 °C 79 % 59 % 1013,3 hPa 0,00 l/m² 51,3 km/h (7 Bft) S-SW 195 ° 0 min 4 lux 0 W/m² 13,9 °C
06.07.2026 22:45 16,9 °C 24,3 °C 17,3 °C 81 % 63 % 1013,3 hPa 0,00 l/m² 51,3 km/h (7 Bft) S-SW 195 ° 0 min 0 lux 0 W/m² 13,6 °C
06.07.2026 23:00 16,6 °C 24,3 °C 16,7 °C 81 % 70 % 1013,4 hPa 0,00 l/m² 51,3 km/h (7 Bft) S-SW 195 ° 0 min 0 lux 0 W/m² 13,3 °C
06.07.2026 23:15 16,2 °C 24,3 °C 16,4 °C 82 % 79 % 1013,4 hPa 0,00 l/m² 51,3 km/h (7 Bft) S-SW 195 ° 0 min 0 lux 0 W/m² 13,1 °C
06.07.2026 23:30 16,0 °C 24,3 °C 16,0 °C 83 % 83 % 1013,4 hPa 0,00 l/m² 51,3 km/h (7 Bft) S-SW 195 ° 0 min 0 lux 0 W/m² 13,1 °C
06.07.2026 23:45 15,7 °C 24,3 °C 15,9 °C 83 % 85 % 1013,5 hPa 0,00 l/m² 51,3 km/h (7 Bft) S-SW 195 ° 0 min 0 lux 0 W/m² 12,8 °C
_ Min-Zeit 04:00 00:00 05:00 20:00 20:00 20:00 - 00:00 - - - - - 04:00
Minimum _ 14,5 °C 24,3 °C 11,1 °C 60 % 38 % 1012,7 hPa - 51,3 km/h (7 Bft) - - - - - 11,5 °C
_ Max-Zeit 20:00 00:00 20:00 07:00 00:00 00:30 09:30 00:00 - - 00:00 12:45 12:45 14:45
Maximum _ 23,6 °C 24,3 °C 24,1 °C 84 % 95 % 1018,6 hPa 0,11 l/m² 51,3 km/h
S-SW (7 Bft)
- - 0 min 39,2 klux 255 W/m² 16,1 °C
Durchschnitt _ 17,8 °C 24,3 °C 16,7 °C 78 % 70 % 1015,7 hPa #0,33 l/m² 51,3 km/h (7 Bft) S-SW - #0 min. 7,20 klux 69 W/m² 13,7 °C